Willimantic, CT

7:31 PM EDT on September 20, 2019 (GMT -0400)
Windham

Weather History for KIJD - August, 2019

Change the Weather History Date:

Tuesday, August 20, 2019

  Actual Average Record
Temperature  
Mean Temperature 76 °F -  
Max Temperature 87 °F 80 °F 92 °F (1955)
Min Temperature 66 °F 55 °F 41 °F (1953)
Cooling Degree Days 11    
Growing Degree Days 26 (Base 50)    
Moisture  
Dew Point 65 °F    
Average Humidity 84    
Maximum Humidity 100    
Minimum Humidity 32    
Precipitation  
Precipitation 0.00 in - - ()
Sea Level Pressure  
Sea Level Pressure 30.05 in    
Wind  
Wind Speed 1 mph ()    
Max Wind Speed 8 mph    
Max Gust Speed -    
Visibility 4.6 miles    
Events Fog    
Averages and records for this station are not official NWS values.
T = Trace of Precipitation, MM = Missing Value Source: Averaged Metar Reports

Daily Weather History Graph

Daily Weather History Graph

Search for Another Location

Airport or City:

Astronomy

Aug. 20, 2019 Rise Set
Actual Time 6:02 AM EDT 7:41 PM EDT
Civil Twilight 5:32 AM EDT 8:10 PM EDT
Nautical Twilight 4:56 AM EDT 8:46 PM EDT
Astronomical Twilight 4:18 AM EDT 9:24 PM EDT
Moon 10:24 PM EDT 10:40 AM EDT
Length of Visible Light 14h 38m
Length of Day
13h 39m
Waning Gibbous, 78% of the Moon is Illuminated
Aug 20
Waning Gibbous
Aug 23
Last Quarter
Aug 30
New
Sep 5
First Quarter
Sep 14
Full

Hourly Weather History & Observations

Time (EDT) Temp. Heat Index Dew Point Humidity Pressure Visibility Wind Dir Wind Speed Gust Speed Precip Events Conditions
12:03 AM 70.0 °F - 70.0 °F 100% 30.00 in 1.5 mi Calm Calm - N/A   Mostly Cloudy
12:21 AM 70.0 °F - 69.1 °F 97% 30.01 in 2.5 mi Calm Calm - N/A   Overcast
12:40 AM 70.0 °F - 70.0 °F 100% 30.01 in 1.0 mi Calm Calm - N/A   Overcast
12:48 AM 69.8 °F - 69.8 °F 100% 30.01 in 0.2 mi Calm Calm - N/A Fog Fog
12:52 AM 70.0 °F - 69.1 °F 97% 30.01 in 0.2 mi Calm Calm - N/A Fog Fog
12:59 AM 70.0 °F - 69.1 °F 97% 30.01 in 0.5 mi Calm Calm - N/A Fog Fog
1:07 AM 70.0 °F - 69.1 °F 97% 30.01 in 0.2 mi Calm Calm - N/A Fog Fog
1:52 AM 69.1 °F - 69.1 °F 100% 30.02 in 0.2 mi Calm Calm - N/A Fog Fog
2:02 AM 69.1 °F - 69.1 °F 100% 30.02 in 0.2 mi Calm Calm - N/A Fog Fog
2:24 AM 68.0 °F - 68.0 °F 100% 30.02 in 0.8 mi Calm Calm - N/A   Mist
2:30 AM 68.0 °F - 68.0 °F 100% 30.03 in 2.5 mi Calm Calm - N/A   Mostly Cloudy
2:37 AM 68.0 °F - 66.9 °F 96% 30.03 in 9.0 mi Calm Calm - N/A   Mostly Cloudy
2:52 AM 68.0 °F - 66.9 °F 96% 30.02 in 9.0 mi Calm Calm - N/A   Scattered Clouds
3:06 AM 66.9 °F - 66.9 °F 100% 30.03 in 8.0 mi Calm Calm - N/A   Mostly Cloudy
3:15 AM 68.0 °F - 66.9 °F 96% 30.03 in 1.8 mi Calm Calm - N/A   Mostly Cloudy
3:24 AM 66.9 °F - 66.9 °F 100% 30.04 in 0.8 mi Calm Calm - N/A   Overcast
3:40 AM 66.9 °F - 66.0 °F 97% 30.04 in 2.5 mi Calm Calm - N/A   Mostly Cloudy
3:52 AM 66.9 °F - 66.9 °F 100% 30.04 in 0.8 mi Calm Calm - N/A   Mist
4:00 AM 66.9 °F - 66.9 °F 100% 30.04 in 1.2 mi Calm Calm - N/A   Overcast
4:08 AM 66.9 °F - 66.0 °F 97% 30.04 in 0.5 mi Calm Calm - N/A Fog Fog
4:23 AM 66.9 °F - 66.9 °F 100% 30.05 in 0.2 mi Calm Calm - N/A Fog Fog
4:52 AM 66.9 °F - 66.9 °F 100% 30.05 in 0.2 mi Calm Calm - N/A Fog Fog
5:21 AM 66.9 °F - 66.9 °F 100% 30.07 in 0.2 mi Calm Calm - N/A Fog Fog
5:43 AM 66.0 °F - 66.0 °F 100% 30.08 in 0.2 mi Calm Calm - N/A Fog Fog
5:50 AM 66.2 °F - 66.2 °F 100% 30.08 in 0.5 mi Calm Calm - N/A Fog Fog
5:52 AM 66.0 °F - 66.0 °F 100% 30.08 in 0.2 mi Calm Calm - N/A Fog Fog
6:52 AM 66.0 °F - 66.0 °F 100% 30.10 in 0.2 mi Calm Calm - N/A Fog Fog
7:52 AM 66.9 °F - 66.9 °F 100% 30.11 in 0.2 mi North 3.5 mph - N/A Fog Fog
8:31 AM 69.1 °F - 68.0 °F 96% 30.11 in 3.0 mi Calm Calm - N/A   Overcast
8:52 AM 70.0 °F - 69.1 °F 97% 30.11 in 10.0 mi Calm Calm - N/A   Scattered Clouds
9:52 AM 75.0 °F - 62.1 °F 64% 30.11 in 10.0 mi NW 5.8 mph - N/A   Clear
10:52 AM 81.0 °F 80.8 °F 55.9 °F 42% 30.11 in 10.0 mi North 8.1 mph - N/A   Clear
11:52 AM 81.0 °F 81.0 °F 57.0 °F 44% 30.10 in 10.0 mi West 5.8 mph - N/A   Clear
12:52 PM 82.0 °F 81.4 °F 55.0 °F 39% 30.09 in 10.0 mi Calm Calm - N/A   Clear
1:52 PM 82.9 °F 82.0 °F 55.0 °F 38% 30.08 in 10.0 mi Variable 3.5 mph - N/A   Clear
2:52 PM 84.9 °F 83.2 °F 53.1 °F 33% 30.08 in 10.0 mi West 5.8 mph - N/A   Clear
3:52 PM 86.0 °F 84.0 °F 53.1 °F 32% 30.07 in 10.0 mi Variable 5.8 mph - N/A   Clear
4:52 PM 86.0 °F 84.5 °F 55.0 °F 35% 30.06 in 10.0 mi North 5.8 mph - N/A   Clear
5:52 PM 86.0 °F 84.5 °F 55.0 °F 35% 30.06 in 10.0 mi Calm Calm - N/A   Clear
6:52 PM 82.9 °F 82.8 °F 59.0 °F 44% 30.05 in 10.0 mi SE 5.8 mph - N/A   Clear
7:52 PM 73.9 °F - 66.0 °F 76% 30.04 in 10.0 mi NE 3.5 mph - N/A   Clear
8:52 PM 71.1 °F - 66.0 °F 84% 30.05 in 10.0 mi Calm Calm - N/A   Clear
9:52 PM 69.1 °F - 64.9 °F 87% 30.06 in 10.0 mi Calm Calm - N/A   Clear
10:52 PM 68.0 °F - 64.9 °F 90% 30.06 in 10.0 mi North 3.5 mph - N/A   Clear
11:52 PM 66.9 °F - 64.9 °F 93% 30.06 in 10.0 mi North 3.5 mph - N/A   Clear